Regional Weather Roundup
Issued by NWS

Home | Current Version | Previous Version | Graphics & Text | Print | Product List | Glossary On
Versions: 1 2 3 4 5 6 7 8 9 10 11 12 13 14 15 16 17 18 19 20 21 22 23 24 25 26 27 28 29 30 31 32 33 34 35 36 37 38 39 40 41 42 43 44 45 46 47 48 49 50
000
ASUS43 KDTX 290310
RWRMI
MICHIGAN HOURLY REGIONAL WEATHER ROUNDUP
NATIONAL WEATHER SERVICE DETROIT/PONTIAC MI
1000 PM EST WED JAN 28 2015

NOTE: "FAIR" INDICATES FEW OR NO CLOUDS BELOW 12,000 FEET WITH NO
SIGNIFICANT WEATHER AND/OR OBSTRUCTION TO VISIBILITY.

MIZ047>049-052>055-059>063-066>070-074>076-081>083-290400-
SOUTHEAST LOWER MICHIGAN

CITY           SKY/WX    TMP DP  RH WIND       PRES   REMARKS
ADRIAN         CLOUDY    22  15  75 S9        30.16F
ALMA           CLOUDY    26  10  52 SE12      30.07F
ANN ARBOR      CLOUDY    23  14  68 S9        30.16F
BAD AXE        CLOUDY    23  15  71 S9        30.14F
DETROIT CITY   CLOUDY    25  14  63 S10       30.19F
DETROIT        CLOUDY    23  14  68 SE8       30.20F
FLINT          CLOUDY    26  11  52 S13       30.12F
GROSSE ILE     MOCLDY    25  18  74 SE13      30.19F
HILLSDALE      MOCLDY    23  15  70 SE12G18   30.07F
HOWELL         CLOUDY    24  13  64 SE13      30.11F

CITY           SKY/WX    TMP DP  RH WIND       PRES   REMARKS
JACKSON        CLOUDY    23  14  68 SE14      30.08F
LAMBERTVILLE   CLOUDY    27  16  63 SE8       30.19S
LANSING        CLOUDY    24  12  60 SE17      30.07F
LAPEER         NOT AVBL
MASON          CLOUDY    23  13  67 SE15      30.08F
MONROE         CLOUDY    25  16  68 SE9       30.18F
MT. CLEMENS    CLOUDY    22  17  82 SE10      30.17F
PONTIAC        CLOUDY    23  12  62 S10G20    30.14F
PORT HOPE        N/A     24  11  57 S8        30.14F
PORT HURON     CLOUDY    21  16  79 S8        30.20F
TRI CITIES     CLOUDY    28  10  46 S12       30.10F
YPSILANTI      CLOUDY    26  15  63 SE12      30.18F
$$
MIZ043>046-050>051-056>058-064>065-071>073-077>080-290400-
SOUTHWEST LOWER MICHIGAN

CITY           SKY/WX    TMP DP  RH WIND       PRES   REMARKS
BATTLE CREEK   CLOUDY    27  14  58 SE15G21   30.04F
BENTON HARBOR  CLOUDY    28  18  66 SE18G26   29.97F
BIG RAPIDS     CLOUDY    27   9  46 SE12      30.00F
COLDWATER      CLOUDY    25  15  67 SE17      30.06F
HOLLAND        CLOUDY    29  14  53 SE17G25   29.99F
GRAND RAPIDS   CLOUDY    27  11  51 SE15G22   30.02F
KALAMAZOO      CLOUDY    26  16  65 S12G23    30.03F
MARSHALL       CLOUDY    24  14  66 SE8G18    30.06F
MUSKEGON       CLOUDY    29   9  43 SE13      29.99F
$$
MIZ016>042-290400-
NORTHERN LOWER MICHIGAN

CITY           SKY/WX    TMP DP  RH WIND       PRES   REMARKS
ALPENA         CLOUDY    25  13  60 S10       30.09F
BEAVER ISLAND  CLOUDY    29  16  58 CALM      29.98F
BELLAIRE       CLOUDY    29  11  46 S8        30.01F
CADILLAC       CLOUDY    25  12  57 SE12G18   29.96F
CHARLEVOIX     CLOUDY    28  12  49 SE7       30.02F
FRANKFORT      CLOUDY    30  13  49 SE9       29.96F
GAYLORD        CLOUDY    24  10  55 S13G24    29.98F
GRAYLING       CLOUDY    26  11  53 SE10        N/A
HARBOR SPRINGS CLOUDY    29   9  43 SE3       30.01S
HOUGHTON LAKE  CLOUDY    25  11  55 SE13      30.02F
MANISTEE       CLOUDY    30   9  40 SE10      29.97F
OSCODA         CLOUDY    27  14  57 S6        30.11F
PELLSTON       CLOUDY    29  10  45 SE10      30.01F
TRAVERSE CITY  CLOUDY    29  12  49 VRB6      29.98F
$$
MIZ007>008-015-290400-
EASTERN UPPER MICHIGAN

CITY           SKY/WX    TMP DP  RH WIND       PRES   REMARKS
KINROSS        CLOUDY    25  18  74 E10       30.01F
MACKINAC ISLAN CLOUDY    29  11  45 SE9       30.01F
NEWBERRY       CLOUDY    24  14  66 SE5       29.97F
S. S. MARIE    CLOUDY    23  14  68 E12       30.03F
$$
MIZ004>006-011>014-085-290400-
CENTRAL UPPER MICHIGAN

CITY           SKY/WX    TMP DP  RH WIND       PRES   REMARKS
MANISTIQUE     CLOUDY    29  24  80 SE10      29.96F
ESCANABA       CLOUDY    30  21  69 S10       29.95F
MENOMINEE      CLOUDY    30  21  69 S9        29.91F
SAWYER-GWINN   CLOUDY    28  25  86 S20G28    29.87F
$$
MIZ001>003-009>011-084-290400-
WESTERN UPPER MICHIGAN

CITY           SKY/WX    TMP DP  RH WIND       PRES   REMARKS
IRON MOUNTAIN  CLOUDY    28  23  81 SE12      29.86F
HOUGHTON       CLOUDY    30  21  69 S8        29.83F
COPPER HARBOR    N/A     32  24  72 VRB5      29.85R
IRONWOOD       CLOUDY    28  21  74 S3        29.81S
$$

ABBREVIATIONS USED IN REMARKS
   TC - TEMPERATURE IN CELSIUS
  WCI - WIND CHILL INDEX
   HX - HEAT INDEX
  VSB - VISIBILITY




USA.gov is the U.S. government's official web portal to all federal, state and local government web resources and services.